SWA535 KSNA-KPHX

Flight info

Callsign SWA535
Flight time 0h 52m
Altitude 37000
Route PIGGN3 CNERY BLH HYDRR1
Aircraft B737/M-SDE2E3FGHIRWXY/LB1

Departure

Time 2026-05-03 23:26
Airport John Wayne Orange County International Airport (KSNA)

Arrival

Time 2026-05-04 00:18
Airport Phoenix Sky Harbor International Airport (KPHX)
Time Latitude Longitude Altitude Speed Heading
2026-05-03 23:11 33.67755 -117.86350 54 ft 0 kts 119°
2026-05-03 23:14 33.67757 -117.86353 54 ft 3 kts 119°
2026-05-03 23:15 33.67769 -117.86381 48 ft 4 kts 106°
2026-05-03 23:15 33.67770 -117.86411 51 ft 4 kts 65°
2026-05-03 23:15 33.67757 -117.86430 47 ft 1 kts 28°
2026-05-03 23:15 33.67753 -117.86433 47 ft 1 kts 28°
2026-05-03 23:21 33.67779 -117.86416 46 ft 8 kts 28°
2026-05-03 23:22 33.67895 -117.86341 50 ft 10 kts 28°
2026-05-03 23:22 33.67959 -117.86301 51 ft 11 kts 28°
2026-05-03 23:22 33.68020 -117.86269 50 ft 9 kts
2026-05-03 23:23 33.68066 -117.86308 49 ft 8 kts 301°
2026-05-03 23:23 33.68092 -117.86369 49 ft 8 kts 297°
2026-05-03 23:23 33.68112 -117.86413 45 ft 2 kts 298°
2026-05-03 23:23 33.68115 -117.86421 46 ft 0 kts 297°
2026-05-03 23:24 33.68120 -117.86431 47 ft 4 kts 297°
2026-05-03 23:24 33.68144 -117.86484 47 ft 7 kts 298°
2026-05-03 23:25 33.68151 -117.86516 47 ft 3 kts 246°
2026-05-03 23:25 33.68142 -117.86523 47 ft 0 kts 209°
2026-05-03 23:25 33.68067 -117.86572 49 ft 47 kts 208°
2026-05-03 23:25 33.67521 -117.86919 58 ft 127 kts 209°
2026-05-03 23:26 33.66603 -117.87473 449 ft 158 kts 207°
2026-05-03 23:26 33.65581 -117.88075 1299 ft 165 kts 208°
2026-05-03 23:26 33.64567 -117.88692 2298 ft 167 kts 206°
2026-05-03 23:26 33.63392 -117.89140 3033 ft 190 kts 188°
2026-05-03 23:27 33.61986 -117.89280 3577 ft 214 kts 184°
2026-05-03 23:27 33.60429 -117.89445 4191 ft 231 kts 186°
2026-05-03 23:27 33.58853 -117.89628 5278 ft 226 kts 186°
2026-05-03 23:27 33.57215 -117.89668 5837 ft 253 kts 171°
2026-05-03 23:28 33.55514 -117.88936 6705 ft 263 kts 156°
2026-05-03 23:28 33.53889 -117.87914 7727 ft 268 kts 155°
2026-05-03 23:28 33.52224 -117.86854 8694 ft 272 kts 155°
2026-05-03 23:28 33.50707 -117.85456 9692 ft 284 kts 134°
2026-05-03 23:29 33.49675 -117.83368 10460 ft 302 kts 118°
2026-05-03 23:29 33.48818 -117.80994 11073 ft 316 kts 118°
2026-05-03 23:29 33.47918 -117.78559 11869 ft 324 kts 116°
2026-05-03 23:29 33.47349 -117.75861 12404 ft 349 kts 97°
2026-05-03 23:30 33.47523 -117.72948 12534 ft 357 kts 82°
2026-05-03 23:30 33.48056 -117.70043 12827 ft 357 kts 75°
2026-05-03 23:30 33.49081 -117.67324 12879 ft 359 kts 62°
2026-05-03 23:30 33.50358 -117.64759 12886 ft 360 kts 59°
2026-05-03 23:31 33.51671 -117.62207 12899 ft 359 kts 60°
2026-05-03 23:31 33.52953 -117.59649 12971 ft 357 kts 61°
2026-05-03 23:31 33.54211 -117.57075 12982 ft 358 kts 62°
2026-05-03 23:31 33.55437 -117.54486 13048 ft 356 kts 62°
2026-05-03 23:32 33.56243 -117.52773 13049 ft 357 kts 62°
2026-05-03 23:32 33.57351 -117.50116 13001 ft 357 kts 75°
2026-05-03 23:32 33.57670 -117.47207 13005 ft 351 kts 96°
2026-05-03 23:32 33.57187 -117.44380 13000 ft 344 kts 113°
2026-05-03 23:33 33.56352 -117.41684 13485 ft 348 kts 116°
2026-05-03 23:33 33.55457 -117.38959 14349 ft 351 kts 116°
2026-05-03 23:33 33.54564 -117.36223 15278 ft 356 kts 117°
2026-05-03 23:33 33.53659 -117.33423 15988 ft 365 kts 116°
2026-05-03 23:34 33.52744 -117.30539 16695 ft 374 kts 117°
2026-05-03 23:34 33.51814 -117.27589 17397 ft 383 kts 117°
2026-05-03 23:34 33.50869 -117.24572 18099 ft 392 kts 116°
2026-05-03 23:34 33.50310 -117.21310 18690 ft 410 kts 97°
2026-05-03 23:35 33.50237 -117.17881 19372 ft 415 kts 94°
2026-05-03 23:35 33.50214 -117.14399 20015 ft 419 kts 94°
2026-05-03 23:35 33.50191 -117.10882 20664 ft 425 kts 94°
2026-05-03 23:35 33.50149 -117.07317 21348 ft 431 kts 95°
2026-05-03 23:36 33.50089 -117.03708 22033 ft 436 kts 95°
2026-05-03 23:36 33.50017 -117.00057 22695 ft 441 kts 95°
2026-05-03 23:36 33.49936 -116.96361 23312 ft 447 kts 95°
2026-05-03 23:36 33.49856 -116.92619 23859 ft 452 kts 95°
2026-05-03 23:37 33.49778 -116.88829 24368 ft 457 kts 95°
2026-05-03 23:37 33.49724 -116.84998 24829 ft 462 kts 94°
2026-05-03 23:37 33.49679 -116.81141 25354 ft 466 kts 94°
2026-05-03 23:37 33.49643 -116.77239 25826 ft 471 kts 94°
2026-05-03 23:38 33.49606 -116.73295 26241 ft 476 kts 94°
2026-05-03 23:38 33.49564 -116.69306 26680 ft 480 kts 94°
2026-05-03 23:38 33.49518 -116.65294 27126 ft 484 kts 94°
2026-05-03 23:38 33.49468 -116.61236 27502 ft 489 kts 94°
2026-05-03 23:39 33.49415 -116.57146 27921 ft 494 kts 94°
2026-05-03 23:39 33.49360 -116.53008 28466 ft 498 kts 94°
2026-05-03 23:39 33.49304 -116.48856 28975 ft 502 kts 94°
2026-05-03 23:39 33.49247 -116.44652 29460 ft 507 kts 94°
2026-05-03 23:40 33.49186 -116.40405 29895 ft 512 kts 94°
2026-05-03 23:40 33.49121 -116.36118 30210 ft 517 kts 94°
2026-05-03 23:40 33.49055 -116.31792 30512 ft 522 kts 93°
2026-05-03 23:40 33.48991 -116.27425 30815 ft 529 kts 93°
2026-05-03 23:41 33.48923 -116.22996 31059 ft 534 kts 93°
2026-05-03 23:41 33.48854 -116.18528 31364 ft 539 kts 93°
2026-05-03 23:41 33.48784 -116.14083 31701 ft 542 kts 94°
2026-05-03 23:41 33.48709 -116.09564 32115 ft 544 kts 94°
2026-05-03 23:42 33.48665 -116.04963 32450 ft 548 kts 89°
2026-05-03 23:42 33.49230 -116.00502 32678 ft 552 kts 70°
2026-05-03 23:42 33.50477 -115.96144 32984 ft 554 kts 66°
2026-05-03 23:42 33.51834 -115.91822 33389 ft 553 kts 65°
2026-05-03 23:43 33.53195 -115.87515 33854 ft 553 kts 66°
2026-05-03 23:43 33.54528 -115.83186 34181 ft 554 kts 66°
2026-05-03 23:43 33.55826 -115.78834 34556 ft 553 kts 67°
2026-05-03 23:43 33.57085 -115.74495 34970 ft 550 kts 68°
2026-05-03 23:44 33.58323 -115.70155 35274 ft 550 kts 68°
2026-05-03 23:44 33.59580 -115.65826 35594 ft 550 kts 67°
2026-05-03 23:44 33.60842 -115.61501 36022 ft 546 kts 68°
2026-05-03 23:44 33.61806 -115.57120 36542 ft 544 kts 83°
2026-05-03 23:45 33.61928 -115.52627 36802 ft 540 kts 94°
2026-05-03 23:45 33.61788 -115.48102 36748 ft 545 kts 95°
2026-05-03 23:45 33.61397 -115.38989 36765 ft 548 kts 95°
2026-05-03 23:46 33.61086 -115.29851 36762 ft 549 kts 94°
2026-05-03 23:46 33.60844 -115.20733 36767 ft 544 kts 94°
2026-05-03 23:47 33.60617 -115.11678 36751 ft 543 kts 94°
2026-05-03 23:47 33.60375 -115.02645 36754 ft 541 kts 94°
2026-05-03 23:48 33.60120 -114.93641 36750 ft 539 kts 94°
2026-05-03 23:48 33.59990 -114.89137 36619 ft 542 kts 94°
2026-05-03 23:48 33.59858 -114.84616 36115 ft 542 kts 94°
2026-05-03 23:49 33.59725 -114.80102 35613 ft 542 kts 94°
2026-05-03 23:49 33.59554 -114.75587 35048 ft 542 kts 99°
2026-05-03 23:49 33.58951 -114.71138 34424 ft 540 kts 107°
2026-05-03 23:49 33.58093 -114.66750 33805 ft 541 kts 109°
2026-05-03 23:50 33.57140 -114.62370 33096 ft 544 kts 110°
2026-05-03 23:50 33.56501 -114.59470 32655 ft 544 kts 109°
2026-05-03 23:50 33.55243 -114.53580 31760 ft 545 kts 108°
2026-05-03 23:50 33.54346 -114.49176 31076 ft 544 kts 107°
2026-05-03 23:51 33.53476 -114.44773 30369 ft 541 kts 107°
2026-05-03 23:51 33.52626 -114.40401 29573 ft 535 kts 107°
2026-05-03 23:51 33.51793 -114.36100 28723 ft 526 kts 107°
2026-05-03 23:51 33.50975 -114.31878 28123 ft 513 kts 107°
2026-05-03 23:52 33.50179 -114.27828 27560 ft 501 kts 107°
2026-05-03 23:52 33.49384 -114.23809 26985 ft 492 kts 107°
2026-05-03 23:52 33.48595 -114.19843 26449 ft 487 kts 107°
2026-05-03 23:52 33.47813 -114.15914 25893 ft 483 kts 107°
2026-05-03 23:53 33.47036 -114.12013 25350 ft 480 kts 107°
2026-05-03 23:53 33.46269 -114.08159 24796 ft 472 kts 107°
2026-05-03 23:53 33.45515 -114.04377 24530 ft 461 kts 107°
2026-05-03 23:53 33.44775 -114.00685 24248 ft 453 kts 108°
2026-05-03 23:54 33.44041 -113.97036 24000 ft 449 kts 108°
2026-05-03 23:54 33.43309 -113.93407 23766 ft 449 kts 108°
2026-05-03 23:54 33.42575 -113.89768 23488 ft 450 kts 108°
2026-05-03 23:54 33.41843 -113.86125 23197 ft 449 kts 108°
2026-05-03 23:55 33.41113 -113.82496 22895 ft 448 kts 108°
2026-05-03 23:55 33.40385 -113.78877 22627 ft 447 kts 108°
2026-05-03 23:55 33.39658 -113.75270 22334 ft 445 kts 108°
2026-05-03 23:55 33.38930 -113.71672 22028 ft 444 kts 108°
2026-05-03 23:56 33.38205 -113.68090 21753 ft 442 kts 108°
2026-05-03 23:56 33.37483 -113.64525 21476 ft 439 kts 108°
2026-05-03 23:56 33.36768 -113.61001 21193 ft 434 kts 108°
2026-05-03 23:56 33.36059 -113.57511 20886 ft 430 kts 108°
2026-05-03 23:57 33.35353 -113.54046 20608 ft 426 kts 108°
2026-05-03 23:57 33.34653 -113.50614 20317 ft 423 kts 108°
2026-05-03 23:57 33.33957 -113.47208 20017 ft 420 kts 108°
2026-05-03 23:57 33.33288 -113.43821 19727 ft 418 kts 106°
2026-05-03 23:58 33.32695 -113.40422 19352 ft 417 kts 105°
2026-05-03 23:58 33.32133 -113.37035 19068 ft 415 kts 105°
2026-05-03 23:58 33.31571 -113.33664 18804 ft 412 kts 105°
2026-05-03 23:58 33.31003 -113.30313 18537 ft 410 kts 106°
2026-05-03 23:59 33.30429 -113.26985 18270 ft 408 kts 106°
2026-05-03 23:59 33.29852 -113.23671 17991 ft 406 kts 106°
2026-05-03 23:59 33.29312 -113.20367 17689 ft 405 kts 104°
2026-05-03 23:59 33.28848 -113.17060 17408 ft 402 kts 103°
2026-05-04 00:00 33.28400 -113.13773 17324 ft 400 kts 103°
2026-05-04 00:00 33.27941 -113.10504 17048 ft 398 kts 104°
2026-05-04 00:00 33.27492 -113.07315 16806 ft 390 kts 102°
2026-05-04 00:00 33.27345 -113.04109 16576 ft 383 kts 92°
2026-05-04 00:01 33.27447 -113.00951 16343 ft 379 kts 90°
2026-05-04 00:01 33.27587 -112.97821 16103 ft 375 kts 90°
2026-05-04 00:01 33.27713 -112.94721 15859 ft 371 kts 90°
2026-05-04 00:01 33.27814 -112.91659 15627 ft 368 kts 91°
2026-05-04 00:02 33.27897 -112.88614 15389 ft 365 kts 91°
2026-05-04 00:02 33.27971 -112.85596 15159 ft 361 kts 91°
2026-05-04 00:02 33.28043 -112.82634 14916 ft 352 kts 91°
2026-05-04 00:02 33.28198 -112.79744 14687 ft 345 kts 88°
2026-05-04 00:03 33.28460 -112.76924 14448 ft 338 kts 86°
2026-05-04 00:03 33.28744 -112.74170 14247 ft 333 kts 86°
2026-05-04 00:03 33.29026 -112.71426 14037 ft 332 kts 86°
2026-05-04 00:03 33.29298 -112.68694 13830 ft 331 kts 86°
2026-05-04 00:04 33.29564 -112.65962 13617 ft 331 kts 86°
2026-05-04 00:04 33.29826 -112.63232 13377 ft 330 kts 86°
2026-05-04 00:04 33.30082 -112.60515 13147 ft 328 kts 87°
2026-05-04 00:04 33.30335 -112.57810 12913 ft 327 kts 87°
2026-05-04 00:05 33.30586 -112.55120 12693 ft 324 kts 87°
2026-05-04 00:05 33.30833 -112.52456 12476 ft 322 kts 88°
2026-05-04 00:05 33.31078 -112.49801 12244 ft 320 kts 88°
2026-05-04 00:05 33.31321 -112.47166 12037 ft 318 kts 88°
2026-05-04 00:06 33.31561 -112.44546 11820 ft 316 kts 88°
2026-05-04 00:06 33.31800 -112.41947 11608 ft 314 kts 87°
2026-05-04 00:06 33.32035 -112.39361 11415 ft 311 kts 87°
2026-05-04 00:06 33.32269 -112.36795 11212 ft 310 kts 88°
2026-05-04 00:07 33.32501 -112.34242 11012 ft 308 kts 88°
2026-05-04 00:07 33.32733 -112.31703 10798 ft 306 kts 87°
2026-05-04 00:07 33.32944 -112.29401 10625 ft 304 kts 88°
2026-05-04 00:07 33.33174 -112.26892 10431 ft 304 kts 88°
2026-05-04 00:08 33.33403 -112.24380 10240 ft 304 kts 87°
2026-05-04 00:08 33.33629 -112.21885 10030 ft 299 kts 88°
2026-05-04 00:08 33.33850 -112.19448 9819 ft 291 kts 89°
2026-05-04 00:08 33.34065 -112.17065 9526 ft 286 kts 87°
2026-05-04 00:09 33.34275 -112.14722 9213 ft 279 kts 87°
2026-05-04 00:09 33.34479 -112.12470 9064 ft 264 kts 89°
2026-05-04 00:09 33.34672 -112.10333 8880 ft 255 kts 86°
2026-05-04 00:09 33.34810 -112.08256 8543 ft 250 kts 93°
2026-05-04 00:10 33.34785 -112.06192 8122 ft 251 kts 96°
2026-05-04 00:10 33.34733 -112.04095 7766 ft 249 kts 96°
2026-05-04 00:10 33.34692 -112.02176 7444 ft 247 kts 95°
2026-05-04 00:10 33.34657 -112.00103 7046 ft 246 kts 96°
2026-05-04 00:11 33.34626 -111.98054 6658 ft 246 kts 96°
2026-05-04 00:11 33.34597 -111.96026 6312 ft 243 kts 96°
2026-05-04 00:11 33.34569 -111.93992 5839 ft 246 kts 95°
2026-05-04 00:11 33.34515 -111.91956 5480 ft 243 kts 96°
2026-05-04 00:12 33.34436 -111.89956 5188 ft 240 kts 98°
2026-05-04 00:12 33.34347 -111.87952 4793 ft 241 kts 98°
2026-05-04 00:12 33.34263 -111.85953 4409 ft 240 kts 96°
2026-05-04 00:12 33.34514 -111.83970 4019 ft 248 kts 66°
2026-05-04 00:13 33.35577 -111.82456 3919 ft 232 kts 32°
2026-05-04 00:13 33.37027 -111.81862 3724 ft 215 kts
2026-05-04 00:13 33.38525 -111.81837 3286 ft 216 kts 345°
2026-05-04 00:13 33.39976 -111.82166 3105 ft 208 kts 343°
2026-05-04 00:14 33.41183 -111.82453 3036 ft 209 kts 342°
2026-05-04 00:14 33.42307 -111.83020 3027 ft 201 kts 310°
2026-05-04 00:14 33.42886 -111.84319 3026 ft 180 kts 268°
2026-05-04 00:14 33.42885 -111.85757 3035 ft 178 kts 264°
2026-05-04 00:15 33.42888 -111.87212 2986 ft 175 kts 263°
2026-05-04 00:15 33.42887 -111.88582 2909 ft 176 kts 263°
2026-05-04 00:15 33.42886 -111.89499 2822 ft 177 kts 263°
2026-05-04 00:15 33.42886 -111.90802 2641 ft 167 kts 264°
2026-05-04 00:16 33.42887 -111.91932 2437 ft 154 kts 263°
2026-05-04 00:16 33.42886 -111.93148 2233 ft 139 kts 264°
2026-05-04 00:16 33.42890 -111.94280 2079 ft 136 kts 263°
2026-05-04 00:16 33.42888 -111.95403 1903 ft 133 kts 262°
2026-05-04 00:17 33.42883 -111.96531 1784 ft 138 kts 262°
2026-05-04 00:17 33.42886 -111.97695 1535 ft 141 kts 261°
2026-05-04 00:17 33.42884 -111.98872 1400 ft 142 kts 262°
2026-05-04 00:17 33.42889 -112.00050 1204 ft 142 kts 263°
2026-05-04 00:18 33.42884 -112.01187 1132 ft 121 kts 270°
2026-05-04 00:18 33.42886 -112.01820 1120 ft 36 kts 269°
2026-05-04 00:18 33.42886 -112.01986 1126 ft 24 kts 270°
2026-05-04 00:18 33.42927 -112.02139 1120 ft 16 kts 316°
2026-05-04 00:19 33.42995 -112.02085 1127 ft 15 kts 87°
2026-05-04 00:19 33.42996 -112.01962 1128 ft 15 kts 90°
2026-05-04 00:19 33.42995 -112.01843 1128 ft 14 kts 90°
2026-05-04 00:19 33.42996 -112.01730 1126 ft 13 kts 90°
2026-05-04 00:20 33.43015 -112.01626 1125 ft 13 kts 60°
2026-05-04 00:20 33.43085 -112.01571 1125 ft 13 kts
2026-05-04 00:20 33.43171 -112.01570 1128 ft 12 kts
2026-05-04 00:20 33.43215 -112.01498 1125 ft 13 kts 90°
2026-05-04 00:21 33.43215 -112.01382 1128 ft 15 kts 89°
2026-05-04 00:21 33.43215 -112.01254 1133 ft 16 kts 90°
2026-05-04 00:21 33.43216 -112.01116 1129 ft 17 kts 90°
2026-05-04 00:21 33.43215 -112.00964 1129 ft 19 kts 91°
2026-05-04 00:22 33.43215 -112.00806 1131 ft 19 kts 90°
2026-05-04 00:22 33.43214 -112.00654 1131 ft 18 kts 90°
2026-05-04 00:22 33.43215 -112.00507 1134 ft 17 kts 90°
2026-05-04 00:22 33.43214 -112.00366 1134 ft 17 kts 90°
2026-05-04 00:23 33.43214 -112.00226 1133 ft 17 kts 90°
2026-05-04 00:23 33.43214 -112.00071 1131 ft 20 kts 90°
2026-05-04 00:23 33.43214 -111.99900 1132 ft 21 kts 90°
2026-05-04 00:23 33.43213 -111.99728 1131 ft 20 kts 90°
2026-05-04 00:24 33.43214 -111.99609 1133 ft 11 kts 89°
2026-05-04 00:24 33.43265 -111.99560 1133 ft 11 kts 352°
2026-05-04 00:24 33.43338 -111.99576 1131 ft 11 kts
2026-05-04 00:24 33.43409 -111.99576 1132 ft 9 kts 359°
2026-05-04 00:25 33.43440 -111.99595 1130 ft 5 kts 283°
2026-05-04 00:25 33.43441 -111.99629 1129 ft 2 kts 273°
2026-05-04 00:25 33.43442 -111.99635 1129 ft 0 kts 273°